THORAD AGENA D DEB, 4943

Orbit data source: Space-Track

THORAD AGENA D DEB, 4943 is space debris in SSO originally from a launch on Wed, 08 Apr 1970 UTC launched from the Air Force Western Test Range (AFWTR). Debris objects in space refer to the collection of defunct objects orbiting the Earth. Examples of debris include non-operational satellites, rocket bodies, and fragments generated from explosions, collisions, or faulty payload assembly.

Loading next visibility...
Identifier
4943, 1970-025GD
Orbit
SSO
Country
Flag of USUS
Related business
Manufacturer
Unknown
Mission
Spacecraft
Bus & Motor
Unknown
Mass
Unknown
Launch date (UTC)
1970-04-08 (56 years ago)
Launch vehicle
Unknown
Launch site
Air Force Western Test Range (AFWTR)
Object type
Payload
Rocket body
Debris
Shape & HBR
Unknown shape, 0.1 m
Radar Cross Section
Medium (>0.1 m² and <1 m²)

Expand to show TLE details & history
Last TLE update: 1 day ago

TLE from 1 day ago
0 THORAD AGENA D DEB
1 04943U 70025GD  26255.38782075  .00000053  00000-0  23373-3 0  9993
2 04943  99.6516 211.7908 0227860 332.0703 180.0990 13.10684667693141
Epoch: 2026-09-12T09:18Z
TLE epoch observation values (Epoch: 2026-09-12T09:18:27.712Z)
Latitude
27.44506°
Longitude
-94.18011°
Altitude
1,396.892 km
Speed
7.082 km/s
True Right ascension
02h 27m 19s
True Declination
27° 18' 58"
Sunlit
Object was in full shadow at epoch
Visualization orbit readout
Latitude
Unknown
Longitude
Unknown
Altitude
Unknown
Speed
Unknown
Apparent Right ascension
Unknown
Apparent Declination
Unknown
Sunlit
N/A
Visualization observer readout
Local Sidereal Time
05:08:58
Azimuth
Unknown
Elevation
Unknown
Doppler factor
Unknown
Orbital elements
Apogee altitude
1,390.944 km
Perigee altitude
1,044.779 km
Semi-major axis
7,595.998 km
Eccentricity
0.02279
Inclination
99.6516°
RAAN
211.7908°
Arg. of periapsis
332.0703°
True anomaly
180.09461°
Mean anomaly
180.099°
Eccentric anomaly
180.09679°
Mean motion
3.27843 °/min
Orbital period
109.81 mins
BSTAR
0.00023373
Loading maneuver chart data...
Computing Atmospheric mass density...

Documentation

Showing up to 5 results
|